This is the latest recevied weather packets stored in our database for station/object KI7MOQ. If no packets are shown the sender has not sent any weather packets the latest 1 day(s).
| Time | Temp. | Humidity | Pressure | Rain* | Wind** | Luminosity | Snow |
|---|---|---|---|---|---|---|---|
| 1778043135 | 14.44° C | 84% | 1019 hPa | 0 mm | - | 0 W/m² | - |
| 1778042530 | 14.44° C | 84% | 1018.9 hPa | 0 mm | - | 0 W/m² | - |
| 1778042227 | 14.44° C | 83% | 1019 hPa | 0 mm | - | 0 W/m² | - |
| 1778041321 | 15° C | 82% | 1018.7 hPa | 0 mm | - | 0 W/m² | - |
| 1778040716 | 15° C | 81% | 1018.7 hPa | 0 mm | - | 0 W/m² | - |
| 1778040413 | 15° C | 80% | 1018.5 hPa | 0 mm | - | 0 W/m² | - |
| 1778040110 | 15° C | 80% | 1018.6 hPa | 0 mm | - | 0 W/m² | - |
| 1778039807 | 15° C | 80% | 1018.3 hPa | 0 mm | - | 0 W/m² | - |
| 1778038898 | 15.56° C | 78% | 1018.2 hPa | 0 mm | - | 0 W/m² | - |
| 1778038595 | 15.56° C | 77% | 1018.2 hPa | 0 mm | - | 0 W/m² | - |
| 1778038292 | 16.11° C | 77% | 1018 hPa | 0 mm | - | 0 W/m² | - |
| 1778037989 | 16.11° C | 76% | 1018.1 hPa | 0 mm | - | 1 W/m² | - |
| 1778037686 | 16.11° C | 75% | 1018 hPa | 0 mm | - | 1 W/m² | - |
| 1778037383 | 16.67° C | 74% | 1017.8 hPa | 0 mm | - | 2 W/m² | - |
| 1778037080 | 16.67° C | 73% | 1017.8 hPa | 0 mm | - | 3 W/m² | - |
| 1778036778 | 16.67° C | 73% | 1018 hPa | 0 mm | - | 4 W/m² | - |
| 1778036475 | 16.67° C | 73% | 1017.8 hPa | 0 mm | - | 4 W/m² | - |
| 1778036172 | 16.67° C | 73% | 1017.9 hPa | 0 mm | - | 5 W/m² | - |
| 1778035868 | 16.67° C | 73% | 1017.9 hPa | 0 mm | - | 7 W/m² | - |
| 1778035566 | 16.67° C | 73% | 1017.6 hPa | 0 mm | - | 11 W/m² | - |
| 1778035262 | 16.67° C | 72% | 1017.7 hPa | 0 mm | - | 11 W/m² | - |
| 1778034957 | 17.22° C | 72% | 1017.6 hPa | 0 mm | - | 11 W/m² | - |
| 1778034353 | 17.22° C | 71% | 1017.9 hPa | 0 mm | - | 16 W/m² | - |
| 1778034050 | 17.22° C | 72% | 1017.9 hPa | 0 mm | - | 16 W/m² | - |
| 1778033142 | 17.22° C | 72% | 1017.7 hPa | 0 mm | - | 23 W/m² | - |
* Rain latest hour (hover to see other rain measurements)
** Current wind speed in m/s (hover to see current wind gust speed)